Regional Weather Roundup
Issued by NWS

Home | Current Version | Previous Version | Graphics & Text | Print | Product List | Glossary On
Versions: 1 2 3 4 5 6 7 8 9 10 11 12 13 14 15 16 17 18 19 20 21 22 23 24 25 26 27 28 29 30 31 32 33 34 35 36 37 38 39 40 41 42 43 44 45 46 47 48 49 50
000
ASUS45 KCYS 060010
RWRWY

WYOMING REGIONAL WEATHER ROUNDUP
NATIONAL WEATHER SERVICE CHEYENNE WY
500 PM MST FRI FEB 05 2016

NOTE:  "FAIR" INDICATES FEW OR NO CLOUDS BELOW 12,000 FEET
WITH NO SIGNIFICANT WEATHER AND/OR OBSTRUCTIONS TO VISIBILITY.

WYZ001-060100-
YELLOWSTONE NATIONAL PARK

CITY           SKY/WX    TMP DP  RH WIND       PRES   REMARKS
LK YELLOWSTONE   N/A     18  13  80 VRB5      30.38R WCI  11
6HR MIN TEMP:  16; 6HR MAX TEMP:  25;

W YELLOWSTONE  NOT AVBL

$$
WYZ002>013-054>058-071-098>099-060100-
NORTHERN WYOMING

CITY           SKY/WX    TMP DP  RH WIND       PRES   REMARKS
JACKSON        PTCLDY    21  16  79 VRB5      30.39F WCI  15
CODY           FAIR      39  12  33 W23G30    30.17F WCI  29
GREYBULL       FAIR      34  17  50 S7        30.23F WCI  28
6HR MIN TEMP:  26; 6HR MAX TEMP:  37;

WORLAND        FAIR      33  19  56 S9        30.23F WCI  25
6HR MIN TEMP:  26; 6HR MAX TEMP:  38;

SHERIDAN       PTCLDY    36  18  48 S3        30.14F
6HR MIN TEMP:  33; 6HR MAX TEMP:  41;

BUFFALO        FAIR      28  14  55 SW6       30.17F WCI  22
6HR MIN TEMP:  28; 6HR MAX TEMP:  35;

GILLETTE       FAIR      30  18  60 SW13      30.18F WCI  20
6HR MIN TEMP:  30; 6HR MAX TEMP:  35;

HULETT         FAIR      34  21  60 SW9       30.17F WCI  26
NEWCASTLE      FAIR      32  18  55 W6        30.21F WCI  26

$$
WYZ014>020-022>026-101>103-060100-
CENTRAL WYOMING

CITY           SKY/WX    TMP DP  RH WIND       PRES   REMARKS
BIG PINEY      FAIR      26  16  65 N16       30.36R WCI  14
6HR MIN TEMP:  20; 6HR MAX TEMP:  31;

PINEDALE       FAIR      25  16  68 W20       30.34S WCI  11
DUBOIS         FAIR      28  14  54 W26G38    30.25S WCI  13
LANDER         FAIR      28  15  58 NW6       30.23R WCI  22
6HR MIN TEMP:  25; 6HR MAX TEMP:  35;

RIVERTON       FAIR      27  11  51 NE5       30.24F WCI  22
6HR MIN TEMP:  21; 6HR MAX TEMP:  29;

CASPER         FAIR      22  12  65 SW22      30.25S WCI   6
6HR MIN TEMP:  21; 6HR MAX TEMP:  23;

DOUGLAS        FAIR      25  12  58 W8          N/A  WCI  16
6HR MIN TEMP:  25; 6HR MAX TEMP:  31;


$$
WYZ021-027>030-104>119-060100-
SOUTHERN WYOMING

CITY           SKY/WX    TMP DP  RH WIND       PRES   REMARKS
EVANSTON       CLOUDY    26  18  71 W14       30.44R WCI  14
6HR MIN TEMP:  23; 6HR MAX TEMP:  27;

FORT BRIDGER   PTCLDY    27  19  74 W18G24    30.44R WCI  13
ROCK SPRINGS   FAIR      25  17  72 W24       30.35S WCI   9
6HR MIN TEMP:  21; 6HR MAX TEMP:  26;

DIXON          CLOUDY    23  14  68 S9        30.44F WCI  13
RAWLINS        FAIR      20  12  71 W18G31    30.30R WCI   5
6HR MIN TEMP:  18; 6HR MAX TEMP:  22;

SARATOGA       FAIR      21  12  68 SW9       30.36R WCI  11
LARAMIE        FAIR      20  10  65 E3        30.24R
6HR MIN TEMP:  20; 6HR MAX TEMP:  27;

CHEYENNE       FAIR      27  11  51 W10       30.22R WCI  17
6HR MIN TEMP:  27; 6HR MAX TEMP:  31;

TORRINGTON     FAIR      30  16  56 W10       30.26S WCI  21
6HR MIN TEMP:  30; 6HR MAX TEMP:  35;

PINE BLUFFS    FAIR      27  16  63 NW15      30.26R WCI  15

$$



USA.gov is the U.S. government's official web portal to all federal, state and local government web resources and services.